This is the latest recevied weather packets stored in our database for station/object DB0MW-13. If no packets are shown the sender has not sent any weather packets the latest 10 day(s).
| Time | Temp. | Humidity | Pressure | Rain* | Wind** | Luminosity | Snow |
|---|---|---|---|---|---|---|---|
| 1777991400 | 18.89° C | 73% | 1008.2 hPa | 0 mm | - | - | - |
| 1777991100 | 18.89° C | 75% | 1008.3 hPa | 0 mm | - | - | - |
| 1777990800 | 18.89° C | 75% | 1008.2 hPa | 0 mm | - | - | - |
| 1777990500 | 19.44° C | 75% | 1008.3 hPa | 0 mm | - | - | - |
| 1777989901 | 19.44° C | 74% | 1008.4 hPa | 0 mm | - | - | - |
| 1777989601 | 19.44° C | 73% | 1008.5 hPa | 0 mm | - | - | - |
| 1777989301 | 19.44° C | 72% | 1008.7 hPa | 0 mm | - | - | - |
| 1777989001 | 20° C | 70% | 1008.7 hPa | 0 mm | - | - | - |
| 1777988701 | 20.56° C | 69% | 1008.5 hPa | 0 mm | - | - | - |
| 1777988401 | 20.56° C | 64% | 1008.4 hPa | 0 mm | - | - | - |
| 1777988101 | 20.56° C | 61% | 1008.6 hPa | 0 mm | - | - | - |
| 1777987801 | 20.56° C | 60% | 1008.3 hPa | 0 mm | - | - | - |
| 1777987501 | 21.11° C | 60% | 1008.2 hPa | 0 mm | - | - | - |
| 1777987200 | 21.11° C | 58% | 1008.4 hPa | 0 mm | - | - | - |
| 1777986901 | 21.11° C | 58% | 1008.1 hPa | 0 mm | - | - | - |
| 1777986600 | 21.11° C | 57% | 1008.3 hPa | 0 mm | - | - | - |
| 1777986300 | 21.67° C | 53% | 1008.2 hPa | 0 mm | - | - | - |
| 1777986002 | 21.67° C | 53% | 1008.1 hPa | 0 mm | - | - | - |
| 1777985700 | 21.67° C | 53% | 1008.1 hPa | 0 mm | - | - | - |
| 1777985400 | 21.67° C | 52% | 1008.2 hPa | 0 mm | - | - | - |
| 1777985100 | 21.67° C | 51% | 1008.2 hPa | 0 mm | - | - | - |
| 1777984800 | 21.67° C | 52% | 1008.2 hPa | 0 mm | - | - | - |
| 1777984500 | 21.67° C | 52% | 1008.5 hPa | 0 mm | - | - | - |
| 1777984200 | 21.67° C | 52% | 1008.4 hPa | 0 mm | - | - | - |
| 1777983900 | 21.67° C | 52% | 1008.4 hPa | 0 mm | - | - | - |
* Rain latest hour (hover to see other rain measurements)
** Current wind speed in m/s (hover to see current wind gust speed)